• In Italy
  • List of Countries
  • For 7 days
  • Water Temperature
  • Satellite Maps
  • Weather Map
  • Weather Widgets
  • user-avatar
    Login

    Hourly Weather Satif

    Today, 27 July, Thursday

    Time Temperature Precipitation Wind Pressure Humidity
    00:00 +21°C° 0 mm 2 mps 673 mmHg 57%
    01:00 +21°C° 0 mm 2 mps 673 mmHg 59%
    02:00 +21°C° 0 mm 1 mps 673 mmHg 60%
    03:00 +21°C° 0 mm 1 mps 673 mmHg 61%
    04:00 +21°C° 0 mm 1 mps 673 mmHg 60%
    05:00 +21°C° 0 mm 1 mps 673 mmHg 59%
    06:00 +21°C° 0 mm 1 mps 673 mmHg 58%
    07:00 +22°C° 0 mm 1 mps 674 mmHg 51%
    08:00 +24°C° 0 mm 1 mps 675 mmHg 44%
    09:00 +25°C° 0 mm 1 mps 675 mmHg 36%
    10:00 +26°C° 0 mm 1 mps 675 mmHg 33%
    11:00 +28°C° 0 mm 2 mps 676 mmHg 29%
    12:00 +29°C° 0 mm 2 mps 676 mmHg 25%
    13:00 +30°C° 0 mm 2 mps 676 mmHg 24%
    14:00 +30°C° 0 mm 2 mps 675 mmHg 24%
    15:00 +31°C° 0 mm 2 mps 675 mmHg 23%
    16:00 +30°C° 0 mm 2 mps 675 mmHg 25%
    17:00 +30°C° 0 mm 2 mps 675 mmHg 26%
    18:00 +30°C° 0 mm 3 mps 675 mmHg 28%
    19:00 +29°C° 0 mm 2 mps 675 mmHg 31%
    20:00 +28°C° 0 mm 2 mps 675 mmHg 34%
    21:00 +27°C° 0 mm 2 mps 675 mmHg 37%
    22:00 +27°C° 0 mm 1 mps 675 mmHg 38%
    23:00 +26°C° 0 mm 1 mps 675 mmHg 39%

    Tomorrow, 28 July, Friday

    Time Temperature Precipitation Wind Pressure Humidity
    00:00 +26°C° 0 mm 1 mps 675 mmHg 40%
    01:00 +25°C° 0 mm 1 mps 674 mmHg 41%
    02:00 +25°C° 0 mm 1 mps 674 mmHg 42%
    03:00 +25°C° 0 mm 1 mps 674 mmHg 43%
    04:00 +25°C° 0 mm 1 mps 674 mmHg 40%
    05:00 +26°C° 0 mm 1 mps 675 mmHg 38%
    06:00 +26°C° 0 mm 1 mps 675 mmHg 36%
    07:00 +28°C° 0 mm 2 mps 676 mmHg 32%
    08:00 +30°C° 0 mm 2 mps 676 mmHg 28%
    09:00 +31°C° 0 mm 3 mps 677 mmHg 24%
    10:00 +33°C° 0 mm 3 mps 677 mmHg 22%
    11:00 +34°C° 0 mm 3 mps 677 mmHg 20%
    12:00 +35°C° 0 mm 3 mps 677 mmHg 18%
    13:00 +36°C° 0 mm 3 mps 677 mmHg 18%
    14:00 +36°C° 0 mm 3 mps 677 mmHg 17%
    15:00 +36°C° 0 mm 4 mps 676 mmHg 17%
    16:00 +36°C° 0 mm 3 mps 676 mmHg 18%
    17:00 +35°C° 0 mm 3 mps 676 mmHg 20%
    18:00 +34°C° 0 mm 2 mps 676 mmHg 21%
    19:00 +32°C° 0 mm 2 mps 676 mmHg 24%
    20:00 +31°C° 0 mm 2 mps 676 mmHg 27%
    21:00 +30°C° 0 mm 2 mps 676 mmHg 29%
    22:00 +29°C° 0 mm 2 mps 676 mmHg 30%
    23:00 +29°C° 0 mm 2 mps 676 mmHg 31%

    Day after tomorrow, 29 July, Saturday

    Time Temperature Precipitation Wind Pressure Humidity
    00:00 +28°C° 0 mm 1 mps 676 mmHg 32%
    01:00 +28°C° 0 mm 1 mps 675 mmHg 32%
    02:00 +28°C° 0 mm 1 mps 675 mmHg 33%
    03:00 +27°C° 0 mm 2 mps 675 mmHg 33%
    04:00 +28°C° 0 mm 2 mps 675 mmHg 33%
    05:00 +28°C° 0 mm 2 mps 675 mmHg 33%
    06:00 +29°C° 0 mm 2 mps 675 mmHg 32%
    07:00 +30°C° 0 mm 3 mps 676 mmHg 29%
    08:00 +33°C° 0 mm 4 mps 676 mmHg 26%
    09:00 +35°C° 0 mm 6 mps 677 mmHg 22%
    10:00 +35°C° 0 mm 6 mps 677 mmHg 21%
    11:00 +36°C° 0 mm 6 mps 677 mmHg 20%
    12:00 +38°C° 0 mm 7 mps 677 mmHg 19%
    13:00 +38°C° 0 mm 6 mps 677 mmHg 18%
    14:00 +39°C° 0 mm 5 mps 677 mmHg 18%
    15:00 +39°C° 0 mm 5 mps 676 mmHg 18%
    16:00 +37°C° 0 mm 4 mps 676 mmHg 19%
    17:00 +36°C° 0 mm 4 mps 676 mmHg 20%
    18:00 +36°C° 0 mm 4 mps 675 mmHg 21%
    19:00 +35°C° 0 mm 3 mps 676 mmHg 24%
    20:00 +32°C° 0 mm 2 mps 676 mmHg 27%
    21:00 +31°C° 0 mm 1 mps 676 mmHg 29%
    22:00 +31°C° 0 mm 1 mps 675 mmHg 29%
    23:00 +30°C° 0 mm 1 mps 675 mmHg 30%

    30 July, Sunday

    Time Temperature Precipitation Wind Pressure Humidity
    00:00 +30°C° 0 mm 1 mps 675 mmHg 30%
    01:00 +29°C° 0 mm 2 mps 675 mmHg 30%
    02:00 +29°C° 0 mm 2 mps 674 mmHg 31%
    03:00 +29°C° 0 mm 3 mps 674 mmHg 31%
    04:00 +29°C° 0 mm 3 mps 674 mmHg 31%
    05:00 +29°C° 0 mm 3 mps 674 mmHg 31%
    06:00 +29°C° 0 mm 3 mps 675 mmHg 31%
    07:00 +30°C° 0 mm 4 mps 675 mmHg 28%
    08:00 +33°C° 0 mm 4 mps 676 mmHg 25%
    09:00 +34°C° 0 mm 5 mps 676 mmHg 22%
    10:00 +35°C° 0 mm 5 mps 676 mmHg 21%
    11:00 +35°C° 0 mm 5 mps 676 mmHg 21%
    12:00 +36°C° 0 mm 5 mps 676 mmHg 21%
    13:00 +36°C° 0 mm 4 mps 676 mmHg 20%
    14:00 +36°C° 0 mm 4 mps 675 mmHg 20%
    15:00 +36°C° 0 mm 4 mps 675 mmHg 20%
    16:00 +36°C° 0 mm 3 mps 675 mmHg 22%
    17:00 +35°C° 0 mm 3 mps 675 mmHg 23%
    18:00 +35°C° 0 mm 2 mps 674 mmHg 24%
    19:00 +34°C° 0 mm 2 mps 674 mmHg 27%
    20:00 +32°C° 0 mm 1 mps 674 mmHg 30%
    21:00 +31°C° 0 mm 1 mps 674 mmHg 32%
    22:00 +30°C° 0 mm 1 mps 674 mmHg 32%
    23:00 +30°C° 0 mm 1 mps 674 mmHg 32%

    31 July, Monday

    Time Temperature Precipitation Wind Pressure Humidity
    00:00 +29°C° 0 mm 1 mps 674 mmHg 32%
    01:00 +29°C° 0 mm 2 mps 673 mmHg 32%
    02:00 +29°C° 0 mm 2 mps 673 mmHg 31%
    03:00 +29°C° 0 mm 2 mps 673 mmHg 30%
    04:00 +29°C° 0 mm 3 mps 673 mmHg 29%
    05:00 +29°C° 0 mm 3 mps 673 mmHg 29%
    06:00 +29°C° 0 mm 3 mps 674 mmHg 28%
    07:00 +32°C° 0 mm 4 mps 674 mmHg 25%
    08:00 +34°C° 0 mm 4 mps 675 mmHg 22%
    09:00 +36°C° 0 mm 5 mps 675 mmHg 20%
    10:00 +37°C° 0 mm 5 mps 675 mmHg 18%
    11:00 +39°C° 0 mm 5 mps 675 mmHg 17%
    12:00 +40°C° 0 mm 5 mps 675 mmHg 16%
    13:00 +40°C° 0 mm 4 mps 675 mmHg 16%
    14:00 +40°C° 0 mm 4 mps 674 mmHg 15%
    15:00 +40°C° 0 mm 4 mps 674 mmHg 15%
    16:00 +39°C° 0 mm 3 mps 674 mmHg 16%
    17:00 +38°C° 0 mm 3 mps 674 mmHg 17%
    18:00 +38°C° 0 mm 3 mps 674 mmHg 18%
    19:00 +36°C° 0.1 mm 3 mps 674 mmHg 20%
    20:00 +35°C° 0.1 mm 3 mps 674 mmHg 22%
    21:00 +34°C° 0.1 mm 3 mps 674 mmHg 23%
    22:00 +34°C° 0.1 mm 3 mps 674 mmHg 24%
    23:00 +32°C° 0.1 mm 2 mps 674 mmHg 25%

    1 August, Tuesday

    Time Temperature Precipitation Wind Pressure Humidity
    00:00 +32°C° 0.1 mm 2 mps 674 mmHg 26%
    01:00 +31°C° 0 mm 2 mps 674 mmHg 26%
    02:00 +31°C° 0 mm 2 mps 674 mmHg 26%
    03:00 +31°C° 0 mm 2 mps 674 mmHg 26%
    04:00 +31°C° 0 mm 2 mps 674 mmHg 26%
    05:00 +31°C° 0 mm 2 mps 674 mmHg 26%
    06:00 +31°C° 0 mm 2 mps 674 mmHg 27%
    07:00 +32°C° 0 mm 2 mps 675 mmHg 24%
    08:00 +34°C° 0 mm 2 mps 675 mmHg 22%
    09:00 +36°C° 0 mm 2 mps 676 mmHg 20%
    10:00 +36°C° 0 mm 2 mps 676 mmHg 18%
    11:00 +37°C° 0 mm 2 mps 676 mmHg 17%
    12:00 +38°C° 0 mm 2 mps 676 mmHg 15%
    13:00 +38°C° 0 mm 2 mps 676 mmHg 15%
    14:00 +38°C° 0 mm 3 mps 676 mmHg 15%
    15:00 +39°C° 0 mm 3 mps 676 mmHg 14%
    16:00 +38°C° 0 mm 3 mps 675 mmHg 16%
    17:00 +37°C° 0 mm 3 mps 675 mmHg 17%
    18:00 +37°C° 0 mm 4 mps 675 mmHg 18%
    19:00 +35°C° 0 mm 3 mps 675 mmHg 20%
    20:00 +34°C° 0 mm 3 mps 676 mmHg 22%
    21:00 +32°C° 0 mm 2 mps 676 mmHg 24%
    22:00 +31°C° 0.1 mm 2 mps 676 mmHg 25%
    23:00 +31°C° 0.1 mm 2 mps 676 mmHg 26%
    Show more